Location: Chuathbaluk
(61.5726°N, 159.2454°W)
Time: 04:09:57
(UTC+00:00)

Transit 4A - Pass Details

Date: 27 November 2020
Orbit: 864 x 980 km, 66.8° (Epoch: 26 January)

Event Time Altitude Azimuth Distance (km) Brightness Sun altitude
Rises 04:24:44 0° 312° (NW) 3,693 11.6 -18.6°
Reaches altitude 10° 04:27:47 10° 299° (WNW) 2,736 11.1 -18.9°
Maximum altitude 04:32:44 24° 249° (WSW) 1,882 10.3 -19.5°
Drops below altitude 10° 04:37:36 10° 197° (SSW) 2,683 10.6 -20.1°
Sets 04:40:34 0° 185° (S) 3,606 11.1 -20.4°
